星链-4705 (STARLINK-4705 )

导读

STARLINK-4705是美国SpaceX公司星链星座中的一颗低轨通信卫星,于2022年9月5日发射入轨。星链计划旨在构建全球覆盖的低轨卫星互联网,为全球提供高速低延迟宽带服务。该卫星采用平板设计,搭载Ku/Ka波段通信载荷与氪霍尔推进器,具备自主避撞能力,寿命末期将主动离轨再入大气层烧毁,属于星链第一代组网卫星,助力完善全球卫星互联网覆盖。

Basic Information
目录编号:
53723
目录名称:
STARLINK-4705
国际标识:
2022-107Z
轨道中心:
EARTH
卫星名称:
星链-4705
卫星全名:
星链-4705 (STARLINK-4705 )
卫星状态:
在轨 (已飞行1381 天)
发射日期:
2022-09-05 UTC
国别 :
美国 (US)
星等 :
--
Orbit Information
数据来源 国际轨道数据 AOE轨道数据
星历时间 2026-06-16T14:54:16+0800
1天前
查看轨道信息
2026-06-16T06:00:00+0800
1天前
查看轨道信息
半长轴 6917.896km 6917.906km
偏心率 0.0001266 0.0001397
轨道倾角 53.161° 53.158°
近地点辐角 84.307° 91.030°
升交点赤经 171.052° 172.721°
平近点角 275.807° 52.657°
近地点 538.883km 538.802km
远地点 540.635km 540.736km
周期 95.438分钟 95.438分钟
每日圈数 15.088352 15.088319
Detailed Information
固有亮度:
5
最大亮度:
2.5
卫星平台:
Starlink v1.5
覆盖范围:
全球
运营商:
太空探索技术公司
运营商所在国:
美国
制造商(研发单位):
太空探索技术公司
制造商所在国:
美国
使用方式:
暂无
Satellite Introduction
星链(Starlink)计划是由太空探索技术公司(SpaceX)提出的一个巨型低轨卫星互联网星座项目,计划在2019年至2024年间在太空搭建由约1.2万颗卫星组成的“星链”网络,其中1584颗将部署在地球上空550千米处的近地轨道,并从2020年开始工作。该卫星仍在工作。
2D Orbit Map
3D Orbit Map
Orbit Altitude Analysis Chart
Orbit Inclination Analysis Chart
Orbit Comprehensive Analysis Chart
View Comprehensive Chart